CAPE
18 50 65 63 85 70 45 30 27 65 98 55 58 114 95 55 31 7 6 0 0 0 2 0 1 34 7 0 11 1 57 50 0 0 0 0 0 0 0 0 0 0 0 0 0 0 0
45 46 63 66 75 73 52 39 27 24 75 65 66 7 37 57 40 14 4 0 6 0 0 7 19 12 9 2 1 3 0 0 0 0 0 0 0 0 0 0 0 0 0 0 0 0 0
26 61 57 70 77 80 72 57 34 26 12 48 27 51 26 25 19 7 2 2 1 0 0 0 95 55 29 13 7 0 0 0 0 0 0 0 0 0 0 0 0 0 0 0 0 0 0
21 58 74 77 75 80 72 59 45 17 15 2 16 21 25 22 14 1 0 0 12 85 13 2 38 19 23 24 42 16 2 0 0 0 0 0 0 0 0 0 0 0 0 0 0 0 0
22 43 69 73 73 77 79 57 31 27 7 4 2 5 7 1 0 0 0 0 340 86 76 96 0 6 4 39 38 2 0 0 0 0 0 0 0 0 0 0 0 0 0 0 0 0 0
20 31 52 73 73 79 80 49 32 23 5 1 0 2 2 0 0 0 0 0 12 26 11 1 0 1 12 15 0 0 0 0 0 0 0 0 0 0 0 0 0 0 0 0 0 0 0
15 23 40 56 67 64 35 25 19 30 4 0 0 1 19 15 0 0 0 0 0 5 7 7 5 12 4 0 6 1 1 0 0 0 0 0 0 0 0 0 0 0 0 0 0 0 0
18 13 25 49 77 61 24 18 20 21 13 1 0 0 10 3 0 0 0 0 1 0 3 1 5 0 0 1 2 8 0 0 0 0 0 0 0 0 0 0 0 0 0 0 0 0 0
14 17 15 29 53 71 37 23 12 17 14 2 1 0 0 0 0 0 0 3 0 0 9 1 3 8 14 6 4 1 0 0 0 0 0 0 0 0 0 0 0 0 0 0 0 0 0
8 15 14 12 27 48 56 37 11 12 14 0 0 0 0 0 0 0 0 0 0 0 0 3 4 2 8 15 2 0 2 0 0 0 0 0 0 0 0 0 0 1 0 0 0 0 3
5 15 11 14 12 27 43 43 37 2 4 2 0 0 0 0 0 0 0 0 0 0 0 3 11 0 0 7 0 0 0 7 3 11 0 0 0 0 0 0 0 0 0 0 0 5 8
11 3 11 8 11 18 23 39 41 41 1 0 0 0 0 0 0 0 0 0 0 0 0 9 13 7 5 0 3 0 0 0 0 0 0 0 0 0 0 0 0 0 0 0 0 9 3
9 2 9 7 8 11 12 24 27 26 27 0 0 0 0 0 0 0 0 0 0 0 1 14 13 12 6 6 0 0 0 0 0 0 0 0 0 0 0 0 0 0 5 1 0 3 0
5 9 2 12 5 7 6 9 11 20 17 2 0 0 0 0 0 0 0 0 0 4 10 0 1 0 0 0 0 1 0 0 0 0 2 0 0 0 0 0 0 6 9 2 0 0 0
3 6 2 4 12 9 5 9 16 10 13 6 0 0 0 0 0 0 0 0 0 1 0 0 0 0 3 9 8 2 2 0 4 0 2 14 0 0 0 0 0 17 20 5 21 10 7
5 3 7 0 5 9 7 5 8 12 9 0 0 0 0 0 0 0 0 3 0 0 0 0 0 0 0 0 2 2 5 0 4 0 0 7 6 0 0 0 0 6 13 23 11 0 1
12 6 7 0 2 6 5 5 4 5 1 0 0 0 0 0 0 0 0 0 0 0 0 0 0 0 0 0 0 0 0 0 0 0 0 2 11 0 0 0 3 14 27 19 11 13 2
16 7 6 3 0 5 4 5 6 14 0 0 0 0 0 0 0 0 0 0 0 0 0 0 0 0 0 0 0 0 0 0 0 0 0 0 0 2 0 0 0 0 1 12 2 0 0
25 11 2 1 0 7 9 19 23 15 0 0 0 0 0 0 0 0 0 0 0 0 0 0 0 0 0 0 0 0 0 0 0 0 0 0 0 0 0 0 0 0 0 1 8 0 0
22 11 2 0 0 12 13 24 22 3 0 0 0 0 0 0 0 0 0 0 0 0 0 0 0 0 0 0 0 0 0 0 0 0 0 0 0 0 0 0 0 0 0 0 0 0 0
18 17 1 0 0 6 21 26 9 0 0 0 0 0 0 0 0 0 0 0 0 0 0 0 0 0 0 0 0 0 0 0 0 0 0 0 0 0 0 0 0 0 0 0 0 0 0
19 19 0 0 0 7 14 3 0 0 0 0 0 0 0 0 0 0 0 0 0 0 0 0 0 0 0 0 0 0 0 0 0 0 0 0 0 0 0 0 0 0 0 0 0 0 0
23 22 0 0 0 6 12 8 0 0 0 0 0 0 0 0 0 0 0 0 0 0 0 0 0 0 0 0 0 0 0 0 0 0 0 0 0 0 0 0 0 0 0 0 0 0 0
23 25 0 0 0 2 5 4 1 0 0 0 0 0 0 0 0 0 0 0 0 0 0 0 0 0 0 0 0 0 0 0 0 0 0 0 0 0 0 0 0 0 0 0 0 0 0
17 23 1 0 0 0 3 0 0 0 0 0 0 0 0 0 0 0 0 0 0 0 0 0 0 0 0 0 0 0 0 0 0 0 0 0 0 0 0 0 0 0 0 0 0 0 0
11 19 1 0 0 0 0 0 0 0 0 0 0 0 0 0 0 0 0 0 0 0 0 0 0 0 0 0 0 0 0 0 0 0 0 0 0 0 0 0 0 0 0 0 0 0 0
3 11 1 0 0 0 0 0 0 0 0 0 0 0 0 0 0 0 0 0 0 0 0 0 0 0 0 0 0 0 0 0 0 0 0 0 0 0 0 0 0 0 0 0 0 0 0
6 11 1 0 0 0 0 0 0 0 0 0 0 0 0 0 0 0 0 0 0 0 0 0 0 0 0 0 0 0 0 0 0 0 0 0 0 0 0 0 0 0 0 0 0 0 0
4 6 6 0 0 0 0 0 0 0 0 0 0 0 0 0 0 0 0 0 0 0 0 0 0 0 0 0 0 0 0 0 0 0 0 0 0 0 0 0 0 0 0 0 0 0 0
CIN
-0 -0 -0 -0 -0 -0 -0 -0 -0 -7 -0 -0 -0 -0 -0 -2 -0 -1 -10 -0 -0 -0 -0 -0 -0 -27 -94 -0 -0 -0 -5 -1 -0 -0 -0 -0 -0 -0 -0 -0 -0 -0 -0 -0 -0 -0 -0
-0 -0 -0 -0 -0 -0 -0 -0 -0 -0 -0 -0 -0 -0 -0 -0 -0 -0 -16 -0 -0 -0 -0 -0 -30 -36 -40 -8 -0 -3 -0 -0 -0 -0 -0 -0 -0 -0 -0 -0 -0 -0 -0 -0 -0 -0 -0
-0 -0 -0 -0 -0 -0 -0 -0 -0 -0 -0 -0 -0 -0 -0 -0 -0 -0 -0 -0 -0 -0 -0 -0 -5 -8 -12 -0 -0 -0 -0 -0 -0 -0 -0 -0 -0 -0 -0 -0 -0 -0 -0 -0 -0 -0 -0
-0 -0 -0 -0 -0 -0 -0 -0 -0 -0 -0 -0 -0 -0 -0 -0 -0 -0 -0 -0 -93 -11 -58 -9 -13 -33 -0 -0 -0 -27 -28 -0 -0 -0 -0 -0 -0 -0 -0 -0 -0 -0 -0 -0 -0 -0 -0
-0 -0 -0 -0 -0 -0 -0 -0 -0 -0 -0 -0 -0 -0 -0 -0 -0 -0 -0 -0 -0 -14 -21 -1 -6 -31 -0 -0 -0 -13 -0 -0 -0 -0 -0 -0 -0 -0 -0 -0 -0 -0 -0 -0 -0 -0 -0
-0 -0 -0 -0 -0 -0 -0 -0 -0 -0 -0 -0 -0 -0 -0 -0 -0 -0 -0 -0 -14 -15 -46 -14 -12 -8 -0 -0 -0 -0 -0 -0 -0 -0 -0 -0 -0 -0 -0 -0 -0 -0 -0 -0 -0 -0 -0
-0 -0 -0 -0 -0 -0 -0 -0 -0 -0 -0 -0 -0 -0 -77 -88 -0 -0 -0 -0 -0 -9 -18 -0 -0 -0 -0 -0 -11 -3 -10 -0 -0 -0 -0 -0 -0 -0 -0 -0 -0 -0 -0 -0 -0 -0 -0
-0 -0 -0 -0 -0 -0 -0 -0 -0 -0 -0 -0 -0 -0 -85 -93 -0 -0 -0 -0 -0 -0 -1 -0 -3 -0 -0 -2 -0 -0 -10 -0 -0 -0 -0 -0 -0 -0 -0 -0 -0 -0 -0 -0 -0 -0 -0
-0 -0 -0 -0 -0 -0 -0 -0 -0 -0 -0 -0 -0 -0 -0 -0 -0 -0 -0 -0 -0 -0 -6 -0 -0 -2 -0 -6 -0 -0 -0 -0 -0 -0 -0 -0 -0 -0 -0 -0 -0 -0 -0 -0 -0 -0 -0
-0 -0 -0 -0 -0 -0 -0 -0 -0 -0 -0 -0 -0 -0 -0 -0 -0 -0 -0 -0 -0 -0 -0 -0 -0 -0 -2 -2 -0 -5 -11 -0 -0 -0 -0 -0 -0 -0 -0 -0 -0 -0 -0 -0 -0 -0 -0
-0 -0 -0 -0 -0 -0 -0 -0 -0 -0 -0 -0 -0 -0 -0 -0 -0 -0 -0 -0 -0 -0 -0 -0 -0 -0 -1 -1 -0 -0 -0 -8 -0 -0 -0 -0 -0 -0 -0 -0 -0 -0 -0 -0 -0 -0 -0
-0 -0 -0 -0 -0 -0 -0 -0 -0 -0 -0 -0 -0 -0 -0 -0 -0 -0 -0 -0 -0 -0 -0 -0 -0 -0 -0 -0 -1 -0 -0 -0 -0 -0 -0 -0 -0 -0 -0 -0 -0 -0 -0 -0 -0 -0 -0
-0 -0 -0 -0 -0 -0 -0 -0 -0 -0 -1 -0 -0 -0 -0 -0 -0 -0 -0 -0 -0 -0 -0 -0 -0 -0 -0 -0 -0 -0 -0 -0 -0 -0 -0 -0 -0 -0 -0 -0 -0 -0 -0 -0 -0 -0 -0
-0 -0 -0 -0 -0 -0 -0 -0 -0 -0 -0 -0 -0 -0 -0 -0 -0 -0 -0 -0 -0 -1 -0 -0 -8 -0 -0 -0 -0 -1 -0 -0 -0 -0 -0 -0 -0 -0 -0 -0 -0 -0 -0 -2 -0 -0 -0
-0 -0 -0 -0 -0 -0 -0 -0 -0 -0 -0 -0 -0 -0 -0 -0 -0 -0 -0 -0 -0 -0 -0 -0 -0 -0 -0 -0 -0 -2 -1 -0 -0 -0 -0 -0 -0 -0 -0 -0 -0 -0 -0 -0 -0 -0 -0
-0 -0 -0 -0 -0 -0 -0 -0 -0 -0 -0 -0 -0 -0 -0 -0 -0 -0 -0 -1 -0 -0 -0 -0 -0 -0 -0 -0 -3 -0 -0 -0 -1 -0 -0 -0 -0 -0 -0 -0 -0 -0 -0 -0 -0 -0 -0
-1 -0 -0 -0 -0 -0 -0 -0 -0 -0 -0 -0 -0 -0 -0 -0 -0 -0 -0 -0 -0 -0 -0 -0 -0 -0 -0 -0 -0 -0 -0 -0 -0 -0 -0 -0 -0 -0 -0 -0 -0 -0 -0 -0 -0 -0 -0
-0 -0 -0 -0 -0 -0 -0 -0 -0 -0 -0 -0 -0 -0 -0 -0 -0 -0 -0 -0 -0 -0 -0 -0 -0 -0 -0 -0 -0 -0 -0 -0 -0 -0 -0 -0 -0 -0 -0 -0 -0 -0 -0 -0 -0 -0 -0
-0 -0 -0 -0 -0 -0 -0 -0 -0 -0 -0 -0 -0 -0 -0 -0 -0 -0 -0 -0 -0 -0 -0 -0 -0 -0 -0 -0 -0 -0 -0 -0 -0 -0 -0 -0 -0 -0 -0 -0 -0 -0 -0 -0 -0 -0 -0
-0 -0 -0 -0 -0 -0 -0 -0 -0 -0 -0 -0 -0 -0 -0 -0 -0 -0 -0 -0 -0 -0 -0 -0 -0 -0 -0 -0 -0 -0 -0 -0 -0 -0 -0 -0 -0 -0 -0 -0 -0 -0 -0 -0 -0 -0 -0
-0 -0 -0 -0 -0 -0 -0 -0 -0 -0 -0 -0 -0 -0 -0 -0 -0 -0 -0 -0 -0 -0 -0 -0 -0 -0 -0 -0 -0 -0 -0 -0 -0 -0 -0 -0 -0 -0 -0 -0 -0 -0 -0 -0 -0 -0 -0
-2 -0 -5 -0 -0 -0 -0 -0 -0 -0 -0 -0 -0 -0 -0 -0 -0 -0 -0 -0 -0 -0 -0 -0 -0 -0 -0 -0 -0 -0 -0 -0 -0 -0 -0 -0 -0 -0 -0 -0 -0 -0 -0 -0 -0 -0 -0
-1 -2 -0 -0 -0 -0 -0 -0 -0 -0 -0 -0 -0 -0 -0 -0 -0 -0 -0 -0 -0 -0 -0 -0 -0 -0 -0 -0 -0 -0 -0 -0 -0 -0 -0 -0 -0 -0 -0 -0 -0 -0 -0 -0 -0 -0 -0
-1 -1 -0 -0 -0 -0 -0 -0 -0 -0 -0 -0 -0 -0 -0 -0 -0 -0 -0 -0 -0 -0 -0 -0 -0 -0 -0 -0 -0 -0 -0 -0 -0 -0 -0 -0 -0 -0 -0 -0 -0 -0 -0 -0 -0 -0 -0
-1 -1 -12 -0 -0 -0 -0 -0 -0 -0 -0 -0 -0 -0 -0 -0 -0 -0 -0 -0 -0 -0 -0 -0 -0 -0 -0 -0 -0 -0 -0 -0 -0 -0 -0 -0 -0 -0 -0 -0 -0 -0 -0 -0 -0 -0 -0
-0 -1 -11 -0 -0 -0 -0 -0 -0 -0 -0 -0 -0 -0 -0 -0 -0 -0 -0 -0 -0 -0 -0 -0 -0 -0 -0 -0 -0 -0 -0 -0 -0 -0 -0 -0 -0 -0 -0 -0 -0 -0 -0 -0 -0 -0 -0
-0 -0 -16 -0 -0 -0 -0 -0 -0 -0 -0 -0 -0 -0 -0 -0 -0 -0 -0 -0 -0 -0 -0 -0 -0 -0 -0 -0 -0 -0 -0 -0 -0 -0 -0 -0 -0 -0 -0 -0 -0 -0 -0 -0 -0 -0 -0
-0 -0 -1 -0 -0 -0 -0 -0 -0 -0 -0 -0 -0 -0 -0 -0 -0 -0 -0 -0 -0 -0 -0 -0 -0 -0 -0 -0 -0 -0 -0 -0 -0 -0 -0 -0 -0 -0 -0 -0 -0 -0 -0 -0 -0 -0 -0
-0 -0 -1 -0 -0 -0 -0 -0 -0 -0 -0 -0 -0 -0 -0 -0 -0 -0 -0 -0 -0 -0 -0 -0 -0 -0 -0 -0 -0 -0 -0 -0 -0 -0 -0 -0 -0 -0 -0 -0 -0 -0 -0 -0 -0 -0 -0
Wind_Speed
23 22 23 23 24 24 24 25 27 27 29 31 33 28 19 12 8 8 4 3 2 3 4 4 0 9 6 6 4 8 10 11 10 6 5 5 4 3 5 4 3 2 0 2 5 9 8
23 23 23 23 24 23 24 23 23 24 23 23 21 19 16 14 11 8 7 5 4 7 5 4 2 5 2 5 2 10 14 7 7 7 4 3 4 4 6 3 2 3 2 6 8 9 6
22 23 24 24 24 24 24 22 21 21 21 22 21 19 16 13 12 10 10 9 8 7 6 4 5 8 5 7 4 10 11 5 3 5 5 3 5 5 3 3 0 1 4 6 2 2 3
22 22 24 27 26 26 24 21 17 18 18 18 19 18 17 15 13 12 12 12 13 10 6 5 7 5 5 3 5 10 5 7 7 7 7 4 7 6 4 3 4 3 2 5 1 2 3
21 23 24 25 27 27 25 22 18 13 14 16 16 16 15 15 13 12 13 9 16 17 13 14 7 8 3 2 9 5 3 6 5 6 7 5 5 3 3 3 3 5 1 2 8 2 2
21 22 24 26 27 27 25 23 20 12 12 14 15 15 16 16 15 14 7 6 13 11 7 6 7 11 3 4 5 7 1 3 5 5 5 6 5 3 3 3 2 0 2 3 6 3 1
21 22 24 25 27 26 28 24 20 15 11 14 15 15 14 20 21 14 5 5 6 7 10 8 5 14 6 5 4 6 3 5 3 6 3 3 4 3 4 4 4 4 1 6 9 12 9
20 21 23 25 26 25 27 25 22 17 12 13 14 14 11 14 19 16 6 6 2 2 11 14 12 11 8 0 6 4 0 3 2 3 3 4 1 3 3 3 2 2 6 7 11 4 3
20 20 22 24 26 25 22 25 26 18 13 14 15 15 9 10 10 9 10 6 2 3 6 8 7 6 4 8 5 3 1 2 3 3 2 2 1 5 4 3 3 4 5 5 7 8 13
20 20 21 22 24 25 24 21 21 21 16 15 15 16 10 3 8 4 5 7 3 3 7 10 9 5 3 1 4 0 1 2 1 2 4 3 3 3 2 2 6 6 9 9 9 6 5
19 20 21 20 21 23 24 23 21 18 18 15 15 12 16 9 5 4 4 6 5 1 8 7 4 4 7 3 5 1 3 4 3 4 3 5 1 4 6 7 9 6 1 6 9 11 8
19 19 20 20 20 21 22 22 21 19 14 15 14 10 7 5 4 0 4 3 4 9 4 2 4 3 2 2 3 2 2 3 1 3 3 7 3 4 6 2 7 3 6 8 9 4 5
20 19 19 21 20 20 20 21 20 19 17 11 9 11 7 2 2 2 3 4 7 8 1 3 3 3 3 3 2 2 2 1 1 3 5 5 2 2 3 3 2 5 4 4 3 3 6
19 19 19 20 21 21 21 20 20 18 18 13 6 5 5 3 3 3 3 7 10 4 5 1 1 1 3 4 2 1 2 2 4 3 2 5 7 5 4 5 1 3 3 2 4 3 5
19 19 19 20 21 22 22 21 20 19 17 13 4 2 3 2 2 2 5 7 3 1 0 4 1 2 0 2 2 1 1 2 1 6 2 2 5 2 4 3 3 1 3 3 4 3 4
19 19 19 20 21 22 23 22 21 21 21 5 3 2 2 2 3 2 6 8 3 2 2 1 1 0 2 1 1 1 2 2 1 5 4 2 5 2 0 3 4 6 5 1 1 3 3
14 18 19 19 20 21 23 24 23 23 22 6 4 4 2 3 3 7 6 3 2 2 1 1 1 1 3 3 2 2 1 3 3 4 8 3 2 4 2 5 4 1 2 2 1 2 2
12 15 18 19 19 20 22 23 23 22 19 8 2 5 1 2 7 2 3 4 4 3 1 2 1 1 3 4 1 1 3 6 7 7 6 6 2 5 5 2 1 3 2 4 2 1 1
11 13 17 18 19 20 21 22 21 16 13 2 4 2 2 2 5 1 3 3 2 6 4 4 3 2 2 0 2 4 2 1 6 6 5 5 2 4 4 2 1 2 3 4 2 0 2
14 11 13 18 19 19 22 21 17 12 10 5 4 3 6 6 3 6 5 2 4 4 1 3 4 3 3 4 1 3 4 2 2 2 5 4 2 5 4 4 0 5 4 2 4 3 3
13 10 12 16 18 21 21 19 14 12 6 5 4 1 4 0 4 3 2 4 3 6 4 5 3 4 2 4 5 5 3 6 1 5 2 2 4 2 6 7 2 4 3 2 5 4 3
11 10 11 14 17 19 20 15 14 14 3 6 4 3 2 2 2 1 3 1 3 1 1 4 3 4 4 3 3 4 2 0 0 6 3 4 3 2 6 3 5 5 6 6 3 3 3
10 10 9 12 15 16 17 13 14 16 6 4 1 1 4 3 1 3 3 6 6 5 4 3 3 1 2 3 6 9 7 4 3 2 3 2 2 3 5 4 7 6 9 6 4 4 6
10 9 7 10 12 15 13 12 12 15 9 3 1 2 4 1 1 1 2 3 5 4 4 3 5 2 2 5 2 1 3 6 6 7 5 2 1 2 5 4 3 4 1 0 3 6 7
12 7 5 7 9 12 11 11 11 12 8 4 2 3 2 1 1 2 1 2 4 3 3 4 5 5 1 3 4 4 4 2 2 3 5 4 3 0 1 2 8 1 3 4 4 6 6
11 7 4 5 6 7 7 9 11 9 6 4 2 2 3 3 4 2 2 2 1 2 4 4 3 5 2 3 4 1 3 2 5 7 5 5 3 3 1 1 5 4 2 3 3 5 4
10 8 7 5 5 5 4 7 8 10 6 3 2 2 4 1 3 4 4 4 4 2 2 4 5 3 3 1 3 5 5 4 4 3 2 3 3 2 2 4 9 4 2 1 4 6 1
9 8 9 8 7 6 6 3 7 8 6 2 1 2 4 3 4 7 6 5 1 1 3 3 3 1 3 1 1 2 3 4 2 4 4 4 4 3 1 2 7 4 2 5 6 2 3
9 9 10 10 9 8 6 5 3 5 4 3 2 2 1 3 5 4 5 4 5 6 5 0 1 1 3 3 1 1 3 1 3 4 0 4 7 5 10 9 6 6 6 3 3 5 4
Wind_Direction
6 5 2 356 355 358 359 5 6 18 26 43 44 47 59 72 73 65 63 35 327 320 308 315 340 122 119 82 46 327 56 153 109 97 105 111 88 119 117 112 104 109 209 302 261 271 255
4 7 358 355 357 358 356 5 11 16 27 30 55 68 38 38 34 26 359 354 316 309 294 279 285 143 123 110 338 26 52 15 96 87 96 87 127 128 107 104 109 176 244 263 262 263 249
9 3 359 354 358 357 357 1 10 16 25 25 35 35 40 33 24 3 343 329 309 275 275 320 351 130 72 118 73 71 62 311 54 106 93 61 116 85 119 103 146 53 330 313 281 283 268
11 3 359 356 356 353 356 358 6 17 24 31 30 33 29 21 14 360 347 344 304 245 178 138 94 103 80 114 123 89 90 47 54 63 90 95 96 95 80 137 35 40 52 351 238 296 319
9 4 2 356 355 355 359 359 4 21 28 34 30 33 31 15 8 360 359 7 70 107 130 114 55 68 40 67 115 96 97 108 78 54 53 77 66 79 52 77 37 20 328 329 312 237 322
9 7 3 356 359 1 3 1 357 18 31 43 37 33 35 30 19 5 11 24 66 73 90 103 89 103 256 84 91 128 334 104 96 83 41 46 52 70 47 72 210 353 8 294 264 279 262
7 9 4 0 1 8 10 3 358 6 21 38 40 35 59 44 32 26 26 19 30 37 27 51 58 87 62 103 9 83 208 80 70 49 83 22 73 205 217 169 112 105 251 271 255 268 293
6 10 8 1 4 13 16 11 3 0 17 27 37 38 60 42 42 39 63 63 25 349 63 34 67 80 116 121 109 53 45 89 79 92 88 38 216 227 166 128 146 224 276 277 289 256 260
5 8 9 6 7 11 13 14 11 13 23 21 28 32 33 64 41 39 65 58 310 320 78 40 26 31 10 36 84 149 76 61 91 104 175 136 157 77 128 135 187 227 221 233 248 319 267
6 3 7 9 7 9 12 9 17 13 13 11 24 23 22 65 47 336 41 354 326 313 80 3 7 31 19 166 94 137 290 109 80 162 154 223 244 191 181 244 175 269 207 236 265 293 298
8 0 3 7 9 8 11 12 13 14 3 4 5 33 40 53 135 38 317 329 341 15 67 332 2 310 329 30 139 101 2 10 17 339 111 266 197 191 228 220 176 249 30 256 268 266 297
7 2 0 2 8 9 8 11 11 11 9 357 1 4 12 7 44 346 316 18 22 44 68 18 357 39 58 283 76 79 54 37 252 315 222 229 205 216 216 225 187 273 306 275 250 241 242
2 1 358 358 1 7 8 7 11 5 3 353 346 355 14 335 142 339 334 35 41 70 254 33 60 249 321 66 88 148 186 114 92 13 359 307 217 227 173 288 162 215 286 313 349 213 244
0 0 357 355 359 1 3 6 4 2 359 355 321 15 325 310 338 17 47 47 62 21 58 180 120 351 31 342 46 71 87 299 201 127 289 3 335 195 166 213 332 180 211 251 292 288 300
359 357 355 355 354 355 358 1 1 357 350 347 55 2 330 276 271 37 69 60 94 86 143 133 176 14 276 243 222 269 201 323 268 173 218 303 277 114 195 154 176 93 229 239 263 226 274
355 354 354 354 354 350 353 357 0 356 350 40 85 37 293 9 144 69 64 91 82 3 347 123 204 194 66 51 310 3 318 209 286 172 184 322 297 220 57 110 256 260 334 272 234 290 285
355 352 352 353 351 351 351 353 358 1 360 104 62 53 271 128 105 49 61 62 318 276 226 208 356 167 140 166 224 197 260 251 223 183 181 313 263 292 100 206 166 232 229 250 262 252 305
356 351 348 352 350 349 350 350 355 1 360 55 61 48 293 197 56 24 43 331 327 313 346 311 246 262 184 173 192 232 219 214 176 153 185 213 235 270 240 228 327 349 134 194 223 182 224
338 352 344 349 348 346 348 342 344 1 30 79 65 231 310 92 106 45 324 349 299 357 5 4 324 352 33 185 300 216 246 291 155 163 206 180 238 311 346 39 143 153 225 254 148 200 234
339 350 348 345 349 347 344 341 346 10 29 87 76 45 344 35 6 123 134 7 337 333 293 328 355 42 9 37 61 315 336 331 342 232 220 175 205 204 201 218 284 296 334 262 188 167 166
340 339 348 348 351 351 348 353 1 4 16 93 44 256 171 50 341 102 112 130 21 3 352 16 34 48 274 19 351 1 333 322 269 356 105 162 251 189 254 240 234 254 271 297 213 245 206
335 331 346 351 354 353 354 9 8 354 51 76 112 123 6 97 5 332 346 209 136 275 345 342 60 323 0 106 172 272 8 189 328 322 42 347 282 347 287 187 223 261 230 216 221 175 124
325 330 341 352 354 358 360 7 14 1 24 88 343 96 106 302 26 90 229 193 207 176 195 201 225 247 315 241 213 223 224 267 252 324 309 38 29 20 269 347 315 288 216 197 196 216 157
320 328 335 350 355 357 7 10 18 23 41 98 150 85 86 234 123 258 193 203 201 240 169 217 168 186 272 336 263 215 218 232 226 239 198 276 25 141 259 348 357 250 17 1 239 250 223
317 314 315 340 352 360 14 25 17 31 45 89 117 98 86 161 212 276 338 283 320 317 273 258 221 205 72 27 1 350 335 319 204 188 202 203 141 238 168 220 279 129 190 185 184 290 210
308 305 265 313 339 360 5 28 5 19 55 92 95 124 108 115 249 153 161 168 256 276 312 251 322 332 27 106 89 343 272 272 300 319 159 132 113 136 188 166 247 225 193 196 153 286 303
293 297 233 268 301 325 341 7 19 359 32 103 121 121 101 112 244 160 190 194 153 160 232 300 334 343 359 347 154 176 234 190 244 256 294 333 359 215 220 260 290 265 249 266 98 238 278
270 280 222 239 259 277 293 318 357 21 14 69 248 171 129 163 257 194 198 161 141 164 169 264 27 338 17 27 277 229 193 234 298 239 194 188 161 222 124 277 299 174 65 174 223 277 233
248 252 225 224 240 253 278 287 323 17 33 88 324 311 76 155 228 201 228 236 189 183 145 21 233 234 211 89 240 158 260 252 189 264 55 258 196 191 183 214 207 211 240 244 192 225 247